Retour au catalogue

STARLINK-4178

ActifCommunicationsVLEO
NORAD 53277·PAYLOAD·🇺🇸 United States

Lancé Jul 24, 2022 depuis Cape Canaveral Space Force Station

Loading…

Prochains Passages (prochaines 24 heures)

TLE

FraisSource: CelesTrak SupGP

Époque: Sep 15, 2026, 01:42 UTC

1 53277C 22086AM  26258.07131944 -.00036018  00000+0 -11586-2 0  2584
2 53277  53.1593  41.6352 0001120  83.5334 220.9129 15.31710126    16

Suivez STARLINK-4178 en temps réel avec AllMySat

Download on the App Store